STARLINK-34563, 64708

Orbit data source: Space-Track

STARLINK-34563, 64708 is a payload satellite owned by SpaceX/Seattle (US) in LEO that was launched on Sat, 28 Jun 2025 UTC via an FALCON 9 launch vehicle from the Air Force Western Test Range (AFWTR). Payload-class satellites include a variety of spacecraft equipped with specific instruments for various scientific and technological missions. These include communications satellites like Starlink; space stations such as the ISS; scientific satellites like the Hubble; Earth observation satellites from companies like Planet Labs, Umbra, and HawkEye 360; GPS; miniature CubeSats for education and research; and military/defense satellites.

Loading next visibility...
Identifier
64708, 2025-142N
Orbit
LEO
Country
Flag of USUS
Related business
Manufacturer
SpaceX/Seattle
Mission
Operational Commercial Communications
Bus & Motor
STARLINK V2MO, Unknown motor
Mass
575 kg wet, ~530 kg dry
Launch date (UTC)
2025-06-28 (1 year ago)
Launch vehicle
FALCON 9
Launch site
Air Force Western Test Range (AFWTR)
Object type
Payload
Rocket body
Debris
Shape & HBR
Box + 1 Pan, 17.7 m
Radar Cross Section
41.120 m², Large (>1 m²)

Expand to show TLE details & history
Last TLE update: 8 hours ago

TLE from 8 hours ago
0 STARLINK-34563
1 64708U 25142N   26264.49391698  .00017165  00000-0  60032-3 0  9992
2 64708  70.0007 178.2409 0002334 265.6513  94.4396 15.29575078 68853
Epoch: 2026-09-21T11:51Z
TLE epoch observation values (Epoch: 2026-09-21T11:51:14.427Z)
Latitude
0.00005°
Longitude
0.05786°
Altitude
479.663 km
Speed
7.626 km/s
True Right ascension
11h 52m 57s
True Declination
0° 00' 00"
Sunlit
Object was in daylight at epoch
Visualization orbit readout
Latitude
Unknown
Longitude
Unknown
Altitude
Unknown
Speed
Unknown
Apparent Right ascension
Unknown
Apparent Declination
Unknown
Sunlit
N/A
Visualization observer readout
Local Sidereal Time
12:52:08
Azimuth
Unknown
Elevation
Unknown
Doppler factor
Unknown
Orbital elements
Apogee altitude
476.601 km
Perigee altitude
473.402 km
Semi-major axis
6,853.138 km
Eccentricity
0.00023
Inclination
70.0007°
RAAN
178.2409°
Arg. of periapsis
265.6513°
True anomaly
94.46626°
Mean anomaly
94.4396°
Eccentric anomaly
94.45293°
Mean motion
3.82568 °/min
Orbital period
94.1 mins
BSTAR
0.00060032
Loading maneuver chart data...
Computing Atmospheric mass density...
Loading historical data...
Loading historical data...
Loading historical data...
Loading historical data...
Loading historical data...
Loading historical data...
Loading historical data...

Documentation

Showing up to 5 results
|